Regional Weather Roundup
Issued by NWS Goodland, KS

Home | Current Version | Previous Version | Graphics & Text | Print | Product List | Glossary Off
Versions: 1 2 3 4 5 6 7 8 9 10 11 12 13 14 15 16 17 18 19 20 21 22 23 24 25 26 27 28 29 30 31 32 33 34 35 36 37 38 39 40 41 42 43 44 45 46 47 48 49 50

000
ASUS43 KGLD 202259
RWRGLD

GOODLAND FORECAST AREA HOURLY WEATHER ROUNDUP
NATIONAL WEATHER SERVICE GOODLAND KS
400 PM MST THU NOV 20 2014

...OFFICIAL OBSERVATIONS...

CITY           SKY/WX    TMP DP  RH WIND       PRES   REMARKS
GOODLAND KS    CLEAR     45  16  31 E8        30.00R
HILL CITY KS   CLEAR     45  25  45 NE9       30.04R
IMPERIAL NEB   CLEAR     44  19  36 SE9       29.99S
MCCOOK NEB     CLEAR     41  21  44 E8        30.03S
AKRON CO       CLEAR     48  14  25 SE10      29.95S
BURLINGTON CO  PTCLDY    49  16  26 SE10      29.99R
LIMON CO       MOCLDY    48  11  22 S14       29.98R
$$

...UNOFFICIAL OBSERVATIONS...

CITY           SKY/WX    TMP DP  RH WIND       PRES   REMARKS
COLBY KS       CLEAR     46  25  42 E7        30.01S
GOVE KS          N/A     51  32  48 MISG        N/A
NORTON KS      CLEAR     39  18  41 NE6       30.04S
SHARON SPRINGS   N/A     50  26  38 S5          N/A
TRENTON NEB      N/A     44  32  63 E7          N/A
YUMA CO          N/A     52  14  22 SE7         N/A
$$


USA.gov is the U.S. government's official web portal to all federal, state and local government web resources and services.